TimeEST,TemperatureF,Dew PointF,Humidity,Sea Level PressureIn,VisibilityMPH,Wind Direction,Wind SpeedMPH,Gust SpeedMPH,PrecipitationIn,Events,Conditions,WindDirDegrees,DateUTC
12:58 AM,46.9,43.0,86,30.27,10.0,Calm,Calm,-,N/A,,Clear,0,2012-11-10 05:58:00
1:58 AM,46.0,43.0,89,30.27,10.0,Calm,Calm,-,N/A,,Clear,0,2012-11-10 06:58:00
2:58 AM,48.0,43.0,83,30.28,10.0,Calm,Calm,-,N/A,,Clear,0,2012-11-10 07:58:00
3:58 AM,46.9,43.0,86,30.28,10.0,Calm,Calm,-,N/A,,Clear,0,2012-11-10 08:58:00
4:58 AM,46.9,43.0,86,30.29,10.0,Calm,Calm,-,N/A,,Clear,0,2012-11-10 09:58:00
5:58 AM,46.9,43.0,86,30.30,10.0,WNW,3.5,-,N/A,,Clear,300,2012-11-10 10:58:00
6:58 AM,48.9,45.0,86,30.32,10.0,NW,5.8,-,N/A,,Clear,320,2012-11-10 11:58:00
7:58 AM,54.0,48.0,80,30.34,10.0,NW,5.8,-,N/A,,Clear,320,2012-11-10 12:58:00
8:58 AM,63.0,55.0,75,30.36,10.0,North,6.9,-,N/A,,Clear,360,2012-11-10 13:58:00
10:58 AM,69.1,53.1,57,30.36,10.0,NNE,11.5,-,N/A,,Clear,30,2012-11-10 15:58:00
11:58 AM,71.1,54.0,55,30.35,10.0,NE,9.2,-,N/A,,Clear,40,2012-11-10 16:58:00
12:58 PM,71.1,55.0,57,30.32,10.0,NNE,11.5,-,N/A,,Clear,20,2012-11-10 17:58:00
1:58 PM,71.1,55.0,57,30.30,10.0,NNE,12.7,18.4,N/A,,Clear,20,2012-11-10 18:58:00
2:58 PM,71.1,55.9,59,30.30,10.0,NNE,11.5,-,N/A,,Clear,30,2012-11-10 19:58:00
3:58 PM,71.1,57.0,61,30.30,10.0,NE,10.4,-,N/A,,Clear,50,2012-11-10 20:58:00
4:58 PM,69.1,55.9,63,30.30,10.0,NE,10.4,-,N/A,,Clear,40,2012-11-10 21:58:00
5:58 PM,66.9,57.0,70,30.31,10.0,NE,10.4,-,N/A,,Clear,40,2012-11-10 22:58:00
6:58 PM,66.9,57.9,73,30.32,10.0,NNE,9.2,-,N/A,,Clear,30,2012-11-10 23:58:00
7:58 PM,66.9,60.1,79,30.33,10.0,NNE,6.9,-,N/A,,Clear,20,2012-11-11 00:58:00
8:58 PM,64.9,59.0,81,30.33,10.0,Calm,Calm,-,N/A,,Overcast,0,2012-11-11 01:58:00
9:58 PM,61.0,57.0,87,30.33,10.0,Calm,Calm,-,N/A,,Clear,0,2012-11-11 02:58:00
10:58 PM,59.0,55.9,90,30.32,10.0,Calm,Calm,-,N/A,,Mostly Cloudy,0,2012-11-11 03:58:00
11:58 PM,68.0,57.9,70,30.32,10.0,SE,10.4,-,N/A,,Overcast,130,2012-11-11 04:58:00